Location: Les Jeannots
(43.2262°N, 5.5774°E)
Time: 18:13:30
(UTC+00:00)

ATLAS 2AS CENTAUR R/B - Pass Details

Date: 05 July 2020
Orbit: 930 x 1282 km, 63.7° (Epoch: 19 July)

Event Time Altitude Azimuth Distance (km) Brightness Sun altitude
Rises 20:41:20 0° 322° (NW) 4,214 7.9 -12.1°
Reaches altitude 10° 20:44:48 10° 335° (NNW) 3,207 6.5 -12.5°
Maximum altitude 20:51:06 26° 29° (NNE) 2,132 4.5 -13.2°
Drops below altitude 10° 20:57:01 10° 85° (E) 3,004 4.7 -13.9°
Enters shadow 20:58:54 - 93° (E) 3,532 5.0 -14.1°
